Regional Weather Roundup
Issued by NWS Upton, NY

Current Version | Previous Version | Text Only | Print | Product List | Glossary Off
Versions: 1 2 3 4 5 6 7 8 9 10 11 12 13 14 15 16 17 18 19 20 21 22 23 24 25 26 27 28 29 30 31 32 33 34 35 36 37 38 39 40 41 42 43 44 45 46 47 48
000 ASUS41 KOKX 200305 RWROKX REGIONAL WEATHER ROUNDUP NATIONAL WEATHER SERVICE NEW YORK NY 1100 PM EDT FRI SEP 19 2014 NOTE: "FAIR" INDICATES FEW OR NO CLOUDS BELOW 12,000 FEET WITH NO SIGNIFICANT WEATHER AND/OR OBSTRUCTIONS TO VISIBILITY. NYZ071-072-176-178-NJZ106-104-200400- NEW YORK CITY METRO AREA CITY SKY/WX TMP DP RH WIND PRES REMARKS CENTRAL PARK MOCLDY 61 46 57 VRB7 30.40F LAGUARDIA APRT MOCLDY 60 47 61 SE12 30.38S KENNEDY INTL MOCLDY 61 48 62 E7 30.39S NEWARK/LIBERTY CLOUDY 62 51 67 E8 30.37F BRNX BOT. GARD N/A 59 46 63 SE7 30.39F TETERBORO CLOUDY 61 46 57 E7 30.37S $$ NYZ177-179-078>081-200400- LONG ISLAND NEW YORK CITY SKY/WX TMP DP RH WIND PRES REMARKS FARMINGDALE CLEAR 53 45 74 N3 30.40R ISLIP PTCLDY 52 43 71 CALM 30.38S SHIRLEY CLEAR 48 42 80 CALM 30.40S WESTHAMPTON PTCLDY 56 46 69 E6 30.40F MONTAUK POINT N/A 54 44 69 E3 30.42S $$ NYZ052-065-067-200400- HUDSON VALLEY CITY SKY/WX TMP DP RH WIND PRES REMARKS WHITE PLAINS MOCLDY 50 46 86 CALM 30.38F NEWBURGH CLEAR 55 48 76 SE6 30.37F MONTGOMERY CLEAR 47 44 90 N3 30.36S POUGHKEEPSIE MOCLDY 56 45 66 SE7 30.36S ALBANY PTCLDY 51 38 60 S10 30.33F $$ NJZ001-105-106-008-010-013-015-019>022-104-200400- NEW JERSEY CITY SKY/WX TMP DP RH WIND PRES REMARKS NEWARK/LIBERTY CLOUDY 62 51 67 E8 30.37F TETERBORO CLOUDY 61 46 57 E7 30.37S CALDWELL MOCLDY 58 46 64 SE7 30.37F MORRISTOWN CLOUDY 61 50 67 CALM 30.37F SOMERVILLE CLEAR 50 48 93 NW3 30.35S LINDEN CLOUDY 67 54 64 SE5 30.38S SUSSEX CLEAR 51 47 86 CALM 30.36S ANDOVER N/A 54 49 83 VRB3 30.36S TRENTON CLEAR 55 50 83 E5 30.35S MILLVILLE PTCLDY 57 54 89 E6 30.33S ATLANTIC CITY MOCLDY 64 58 80 E9 30.33F WRIGHTSTOWN PTCLDY 52 52 97 NE2 30.33S TOMS RIVER MOCLDY 59 54 82 CALM 30.35F BELMAR MOCLDY 61 50 67 E8 30.36S $$ PAZ047>061-062-071-200400- EASTERN PENNSYLVANIA CITY SKY/WX TMP DP RH WIND PRES REMARKS PHILADELPHIA CLEAR 59 54 83 E9 30.35S ALLENTOWN CLEAR 57 50 77 E7 30.35S SCRANTON CLOUDY 56 48 74 VRB5 30.31R $$ CTZ002-004>006-009-010-012-RIZ004-006-007-MAZ004-011-015-200400- SOUTHERN NEW ENGLAND IN CT CITY SKY/WX TMP DP RH WIND PRES REMARKS BRADLEY INTL CLEAR 46 40 79 CALM 30.40S HARTFORD CLEAR 51 41 68 S6 30.40F DANBURY CLEAR 51 44 77 SE8 30.40S WTRBRY/OXFORD CLEAR 48 39 71 SE5 30.41S BRIDGEPORT CLEAR 59 43 55 SE12 30.40S MERIDEN CLEAR 45 42 89 CALM 30.40S NEW HAVEN PTCLDY 59 43 55 SE7 30.40S CHESTER FAIR 46 43 87 MISG 30.41S GROTON CLEAR 49 42 77 NE8 30.41S WILLIMANTIC CLEAR 44 40 85 CALM 30.42F IN RI CITY SKY/WX TMP DP RH WIND PRES REMARKS PROVIDENCE CLEAR 48 38 68 CALM 30.44S BLOCK ISLAND CLEAR 54 39 58 SE8 30.42S WESTERLY CLEAR 46 40 79 N3 30.43S IN MA CITY SKY/WX TMP DP RH WIND PRES REMARKS BOSTON CLEAR 51 36 56 SE10 30.43S WORCESTER CLEAR 44 34 67 S7 30.41S WESTFIELD CLEAR 41 39 93 CALM 30.40S PROVINCETOWN CLEAR 36 28 75 CALM 30.45R NANTUCKET CLEAR 48 37 65 E6 30.43S $$ ANZ330-335-338-340-345-350-353-355-200400- COASTAL MARINE OBSERVATIONS STATION/POSITION TIME SKY/WX TEMP WIND PRES VSBY WAVE AIR SEA DIR/SP/G HT/PER (UTC) (F) (DEG/KT/KT) (MB) (MI) (FT/S) NY HARB ENTRANCE 0300 63 70 100/ 14/ 16 1028.7 3/ 6 4S FIRE IS 0300 69 N/A 3/ 6 20S FIRE ISLAND 0300 62 67 100/ 12/ 14 1029.0 4/ 6 23SW MTP 0300 N/A 4/ 6 HUDSON CANYON 0300 64 72 90/ 14/ 16 1027.9 5/ 7 EXECUTION ROCKS 0300 60 70 120/ 10/ 12 N/A WESTERN LI SOUND 0300 60 130/ 8/ 10 N/A 1 CENTRAL LI SOUND 0300 60 70 120/ 14/ 17 N/A 1/ 3 EASTERN LI SOUND 0200 59 67 110/ 12/ 16 N/A ROBBINS REEF 0200 62 110/ 14/ 17 1027.2 $$ >>>>>>>>>>>>>>>>>>>>>>>>>>>> KEY <<<<<<<<<<<<<<<<<<<<<<<<<<< > < > SKY/WX - SKY CONDITION/PRESENT WEATHER < > TMP - TEMPERATURE IN FAHRENHEIT < > DP - DEWPOINT IN FAHRENHEIT < > RH - RELATIVE HUMIDITY IN PERCENT < > WIND - DIRECTION AND SPEED IN MPH < > PRES - MEAN SEA LEVEL PRESSURE IN INCHES OF HG < > WCI - WIND CHILL INDEX < > VSB - VISIBILITY IN MILES < > HX - HEAT INDEX < > TC - TEMPERATURE IN CELSIUS < > VRB - VARIABLE WIND DIRECTION < > < >>>>>>>>>>>>>>>>>>>>>>>>>>>> KEY <<<<<<<<<<<<<<<<<<<<<<<<<<<

USA.gov is the U.S. government's official web portal to all federal, state and local government web resources and services.